Weather History for KLBL - March, 2013

Change the Weather History Date:

Friday, March 1, 2013

  Actual Average Record
Temperature  
Mean Temperature 36 °F -  
Max Temperature 48 °F 60 °F 82 °F (1972)
Min Temperature 24 °F 30 °F 3 °F (1980)
Degree Days  
Heating Degree Days 29    
Moisture  
Dew Point 24 °F    
Average Humidity 59    
Maximum Humidity 74    
Minimum Humidity 40    
Precipitation  
Precipitation 0.00 in - - ()
Sea Level Pressure  
Sea Level Pressure 30.26 in    
Wind  
Wind Speed 12 mph (NNW)    
Max Wind Speed 25 mph    
Max Gust Speed 36 mph    
Visibility 10 miles    
Events      
Averages and records for this station are not official NWS values.
T = Trace of Precipitation, MM = Missing Value Source: NWS Daily Summary

Daily Weather History Graph

Daily Weather History Graph

Search for Another Location

Airport or City:

Trip Planner

Search our weather history database for the weather conditions in past years. The results will help you decide how hot, cold, wet, or windy it might be!

Date:

Astronomy

Mar. 01, 2013 Rise Set
Actual Time 7:14 AM CST 6:38 PM CST
Civil Twilight 6:48 AM CST 7:04 PM CST
Nautical Twilight 6:18 AM CST 7:34 PM CST
Astronomical Twilight 5:48 AM CST 8:04 PM CST
Moon 11:05 PM CST (3/1) 9:09 AM CST (3/1)
Length of Visible Light 12h 16m
Length of Day
11h 23m
Waning Gibbous, 83% of the Moon is Illuminated
Mar 1
Waning Gibbous
Mar 4
Last Quarter
Mar 11
New
Mar 19
First Quarter
Mar 27
Full

Hourly Weather History & Observations

Time (CST) Temp. Windchill Dew Point Humidity Pressure Visibility Wind Dir Wind Speed Gust Speed Precip Events Conditions
12:15 AM 33.8 °F 28.6 °F 24.8 °F 70% 30.21 in 10.0 mi WSW 5.8 mph - N/A   Mostly Cloudy
12:35 AM 35.6 °F 32.8 °F 24.8 °F 65% 30.21 in 10.0 mi NW 3.5 mph - N/A   Scattered Clouds
12:55 AM 35.6 °F 32.8 °F 23.0 °F 60% 30.21 in 10.0 mi NNW 3.5 mph - N/A   Scattered Clouds
1:15 AM 35.6 °F 30.7 °F 23.0 °F 60% 30.20 in 10.0 mi WSW 5.8 mph - N/A   Mostly Cloudy
1:35 AM 33.8 °F 29.6 °F 23.0 °F 65% 30.20 in 10.0 mi NW 4.6 mph - N/A   Mostly Cloudy
1:55 AM 35.6 °F 29.2 °F 23.0 °F 60% 30.20 in 10.0 mi West 8.1 mph - N/A   Mostly Cloudy
2:15 AM 33.8 °F 27.0 °F 23.0 °F 65% 30.20 in 10.0 mi West 8.1 mph - N/A   Overcast
2:35 AM 33.8 °F 29.6 °F 23.0 °F 65% 30.20 in 10.0 mi West 4.6 mph - N/A   Overcast
2:55 AM 33.8 °F 27.7 °F 23.0 °F 65% 30.20 in 10.0 mi NNW 6.9 mph - N/A   Mostly Cloudy
4:15 AM 33.8 °F 23.5 °F 23.0 °F 65% 30.22 in 10.0 mi NW 16.1 mph - N/A   Mostly Cloudy
4:35 AM 35.6 °F 25.9 °F 23.0 °F 60% 30.21 in 10.0 mi WNW 16.1 mph - N/A   Mostly Cloudy
4:55 AM 33.8 °F 23.9 °F 23.0 °F 65% 30.20 in 10.0 mi NW 15.0 mph - N/A   Partly Cloudy
5:15 AM 33.8 °F 23.9 °F 24.8 °F 70% 30.21 in 10.0 mi WNW 15.0 mph - N/A   Clear
5:35 AM 33.8 °F 23.9 °F 24.8 °F 70% 30.21 in 10.0 mi WNW 15.0 mph - N/A   Clear
5:55 AM 33.8 °F 23.2 °F 24.8 °F 70% 30.21 in 10.0 mi NW 17.3 mph - N/A   Clear
6:15 AM 33.8 °F 23.2 °F 24.8 °F 70% 30.22 in 10.0 mi NW 17.3 mph - N/A   Partly Cloudy
6:35 AM 33.8 °F 23.5 °F 24.8 °F 70% 30.22 in 10.0 mi NW 16.1 mph 21.9 mph N/A   Partly Cloudy
6:55 AM 33.8 °F 22.8 °F 23.0 °F 65% 30.23 in 10.0 mi NW 18.4 mph - N/A   Partly Cloudy
7:15 AM 33.8 °F 23.9 °F 23.0 °F 65% 30.24 in 10.0 mi NW 15.0 mph - N/A   Scattered Clouds
7:35 AM 32.0 °F 22.1 °F 21.2 °F 64% 30.25 in 10.0 mi NW 13.8 mph - N/A   Scattered Clouds
7:55 AM 33.8 °F 23.9 °F 23.0 °F 65% 30.25 in 10.0 mi NW 15.0 mph - N/A   Clear
8:15 AM 33.8 °F 23.5 °F 23.0 °F 65% 30.27 in 10.0 mi NW 16.1 mph - N/A   Clear
8:35 AM 35.6 °F 25.5 °F 23.0 °F 60% 30.27 in 9.0 mi NNW 17.3 mph 21.9 mph N/A   Clear
8:55 AM 35.6 °F 25.2 °F 24.8 °F 65% 30.28 in 10.0 mi NNW 18.4 mph 26.5 mph N/A   Clear
9:15 AM 35.6 °F 24.8 °F 24.8 °F 65% 30.28 in 10.0 mi North 19.6 mph - N/A   Clear
9:35 AM 37.4 °F 27.8 °F 24.8 °F 60% 30.29 in 10.0 mi North 17.3 mph 20.7 mph N/A   Clear
9:55 AM 37.4 °F 27.8 °F 24.8 °F 60% 30.29 in 10.0 mi NW 17.3 mph - N/A   Clear
10:15 AM 39.2 °F 30.2 °F 26.6 °F 61% 30.30 in 10.0 mi NNW 17.3 mph - N/A   Clear
10:35 AM 39.2 °F 30.8 °F 26.6 °F 61% 30.30 in 10.0 mi NNW 15.0 mph - N/A   Clear
10:55 AM 39.2 °F 30.5 °F 26.6 °F 61% 30.29 in 10.0 mi North 16.1 mph 19.6 mph N/A   Scattered Clouds
11:15 AM 41.0 °F 32.8 °F 26.6 °F 57% 30.30 in 10.0 mi NNW 16.1 mph - N/A   Mostly Cloudy
11:35 AM 42.8 °F 35.4 °F 28.4 °F 57% 30.29 in 10.0 mi North 15.0 mph 24.2 mph N/A   Scattered Clouds
12:15 PM 44.6 °F 36.6 °F 28.4 °F 53% 30.29 in 10.0 mi North 19.6 mph 26.5 mph N/A   Mostly Cloudy
12:35 PM 44.6 °F 36.9 °F 26.6 °F 49% 30.29 in 10.0 mi North 18.4 mph 25.3 mph N/A   Mostly Cloudy
12:55 PM 44.6 °F 36.4 °F 26.6 °F 49% 30.28 in 10.0 mi NNW 20.7 mph 35.7 mph N/A   Overcast
1:15 PM 46.4 °F 38.7 °F 26.6 °F 46% 30.27 in 10.0 mi North 20.7 mph 27.6 mph N/A   Overcast
1:35 PM 46.4 °F 37.9 °F 26.6 °F 46% 30.27 in 10.0 mi North 25.3 mph 31.1 mph N/A   Overcast
1:55 PM 46.4 °F 38.3 °F 26.6 °F 46% 30.26 in 10.0 mi NNW 23.0 mph - N/A   Mostly Cloudy
2:15 PM 48.2 °F - 26.6 °F 43% 30.25 in 10.0 mi North 21.9 mph 33.4 mph N/A   Mostly Cloudy
2:35 PM 46.4 °F 38.3 °F 24.8 °F 43% 30.25 in 10.0 mi North 23.0 mph 29.9 mph N/A   Scattered Clouds
2:55 PM 48.2 °F - 26.6 °F 43% 30.24 in 10.0 mi North 25.3 mph 33.4 mph N/A   Mostly Cloudy
3:15 PM 48.2 °F - 26.6 °F 43% 30.25 in 10.0 mi NNW 21.9 mph 29.9 mph N/A   Mostly Cloudy
3:35 PM 46.4 °F 37.9 °F 24.8 °F 43% 30.24 in 10.0 mi North 25.3 mph 29.9 mph N/A   Overcast
4:15 PM 46.4 °F 38.5 °F 24.8 °F 43% 30.24 in 10.0 mi North 21.9 mph 31.1 mph N/A   Scattered Clouds
4:35 PM 46.4 °F 38.1 °F 24.8 °F 43% 30.24 in 10.0 mi North 24.2 mph 28.8 mph N/A   Clear
4:55 PM 46.4 °F 38.1 °F 23.0 °F 40% 30.24 in 10.0 mi North 24.2 mph - N/A   Clear
5:15 PM 44.6 °F 36.6 °F 23.0 °F 43% 30.25 in 10.0 mi NNE 19.6 mph - N/A   Clear
5:35 PM 44.6 °F 36.6 °F 24.8 °F 46% 30.25 in 10.0 mi NNE 19.6 mph 24.2 mph N/A   Clear
5:55 PM 42.8 °F 35.8 °F 24.8 °F 49% 30.26 in 10.0 mi NE 13.8 mph - N/A   Clear
6:15 PM 42.8 °F 36.2 °F 24.8 °F 49% 30.27 in 10.0 mi NE 12.7 mph 17.3 mph N/A   Clear
6:35 PM 39.2 °F 31.6 °F 24.8 °F 56% 30.27 in 10.0 mi ENE 12.7 mph - N/A   Clear
6:55 PM 39.2 °F 32.5 °F 24.8 °F 56% 30.28 in 10.0 mi ENE 10.4 mph - N/A   Clear
7:15 PM 37.4 °F 30.8 °F 24.8 °F 60% 30.29 in 10.0 mi NE 9.2 mph - N/A   Clear
7:35 PM 37.4 °F 30.8 °F 24.8 °F 60% 30.30 in 10.0 mi ENE 9.2 mph - N/A   Clear
8:15 PM 35.6 °F 29.2 °F 23.0 °F 60% 30.31 in 10.0 mi ENE 8.1 mph - N/A   Partly Cloudy
8:35 PM 35.6 °F 30.7 °F 23.0 °F 60% 30.32 in 10.0 mi NE 5.8 mph - N/A   Clear
8:55 PM 33.8 °F 28.6 °F 21.2 °F 60% 30.33 in 10.0 mi NE 5.8 mph - N/A   Partly Cloudy
9:15 PM 32.0 °F 27.5 °F 21.2 °F 64% 30.33 in 10.0 mi NE 4.6 mph - N/A   Partly Cloudy
9:55 PM 30.2 °F - 21.2 °F 69% 30.33 in 10.0 mi Calm Calm - N/A   Clear
10:15 PM 30.2 °F 25.4 °F 19.4 °F 64% 30.35 in 10.0 mi WNW 4.6 mph - N/A   Clear
10:35 PM 26.6 °F 19.1 °F 17.6 °F 69% 30.35 in 10.0 mi WNW 6.9 mph - N/A   Clear
10:55 PM 26.6 °F 17.5 °F 17.6 °F 69% 30.35 in 10.0 mi WNW 9.2 mph - N/A   Clear
11:35 PM 24.8 °F 16.1 °F 17.6 °F 74% 30.35 in 10.0 mi West 8.1 mph - N/A   Clear
11:55 PM 26.6 °F 19.1 °F 19.4 °F 74% 30.34 in 10.0 mi West 6.9 mph - N/A   Clear